ASTRA 1G
1 25071U 97076A   02354.00000000  .00000143  00000-0  10000-3 0  3859
2 25071   0.0122 319.8851 0002995  65.1991  82.5033  1.00273184 18537
INMARSAT 3-F5
1 25153U 98006B   02357.15378473  .00000157  00000-0  10000-3 0  8248
2 25153   0.4503 357.6363 0004446 282.0150 252.2432  1.00275216 17922
HOT BIRD 4
1 25237U 98013A   02353.82621742  .00000111  00000-0  10000-3 0  3222
2 25237   0.0438 307.7455 0004897 256.9385 194.0865  1.00274102 17933
NOAA 15
1 25338U 98030A   02360.92483590  .00000444  00000-0  21077-3 0  9488
2 25338  98.5517  19.5261 0011360 111.6601 248.5789 14.24218726240162
RESURS O1-N4
1 25394U 98043A   02361.22988457  .00000644  00000-0  30020-3 0  4092
2 25394  98.6385  75.1218 0000657 252.6073 107.5035 14.23856881231947
TMSAT
1 25396U 98043C   02361.18647472 -.00000043  00000-0  00000+0 0  8075
2 25396  98.6361  74.3197 0001377 265.5417  94.5606 14.23489715231931
TECHSAT 1B
1 25397U 98043D   02359.92192475 +.00000240 +00000-0 +12596-3 0 00946
2 25397 098.6302 072.0274 0000670 353.2761 006.8406 14.22945710231722
ASTRA 2A
1 25462U 98050A   02354.00000000  .00000173  00000-0  00000+0 0  5261
2 25462   0.0385 308.7109 0004824 280.8620 247.0673  1.00272094 15830
EUTELSAT W2
1 25491U 98056A   02359.83938433  .00000115  00000-0  00000+0 0  5520
2 25491   0.0126 249.7749 0003903  24.4382 138.1182  1.00272597 15500
HOT BIRD 5
1 25495U 98057A   02356.04688080  .00000174  00000-0  00000+0 0  4844
2 25495   0.0152 250.7235 0004141   2.0169 247.6769  1.00273387 15432
SEDSAT 1
1 25509U 98061B   02360.44852679  .00002140  00000-0  41640-3 0  7422
2 25509  31.4282  98.7507 0358902 190.3335 168.9750 14.27316818217579
PAN SAT
1 25520U 98064B   02359.04568974  .00005415  00000-0  28361-3 0  6202
2 25520  28.4584 233.5954 0006269 110.5214 249.6055 15.13575124229160
ISS (ZARYA)
1 25544U 98067A   02361.52298520  .00021084  00000-0  27991-3 0  5166
2 25544  51.6348 162.4883 0003927 321.6388 161.2574 15.58174071234265
ORSTED
1 25635U 99008B   02361.06249181  .00001162  00000-0  30135-3 0  7915
2 25635  96.4464 355.1244 0145836 138.3458 222.8952 14.44747355202210
SUNSAT
1 25636U 99008C   02359.93434237 +.00000608 +00000-0 +16659-3 0 07376
2 25636 096.4490 353.0348 0149793 147.8908 213.1520 14.42905576201934
UOSAT 12
1 25693U 99021A   02361.51133936  .00000709  00000-0  12154-3 0  5582
2 25693  64.5574 173.1710 0015400 316.4381  43.5486 14.76322227198424
FENGYUN 1C
1 25730U 99025A   02361.56793523  .00000025  00000-0  36877-4 0  7275
2 25730  98.6373  22.9524 0014974 150.7278 209.4734 14.11727293187152
ASTRA 1H
1 25785U 99033A   02354.00000000  .00000143  00000-0  10000-3 0  3665
2 25785   0.0122 319.8851 0002995  65.1991  82.5348  1.00273184 12891
TERRA
1 25994U 99068A   02361.23138730  .00001052  00000-0  24337-3 0  5402
2 25994  98.2062  73.2573 0000629  78.0970 282.0285 14.57148116160904
JAWSAT
1 26061U 00004A   02361.55237027  .00001286  00000-0  44337-3 0  7261
2 26061 100.2134  43.7632 0035591  69.9129 290.5877 14.37760043152913
OPAL
1 26063U 00004C   02360.67609659  .00000443  00000-0  17310-3 0  6836
2 26063 100.2193  40.4572 0037411  77.9998 282.5366 14.35457126152651
ASUSAT
1 26065U 00004E   02361.54007554  .00000490  00000-0  18936-3 0  6940
2 26065 100.2203  41.6165 0037887  77.5525 282.9891 14.35483449152772
GOES 11
1 26352U 00022A   02360.33184884 -.00000034  00000-0  10000-3 0  9466
2 26352   0.0077  26.6276 0004821 243.2419 192.6595  1.00259691  9697
EUTELSAT W4
1 26369U 00028A   02359.81848933  .00000167  00000-0  00000+0 0  3312
2 26369   0.0244 337.3956 0009168 318.5766 128.8640  1.00272641  9500
FENGYUN 2B
1 26382U 00032A   02360.50952900 -.00000319  00000-0  00000+0 0  7549
2 26382   0.7082 286.3492 0000402 221.2561 235.2120  1.00275686  9176
EUTELSAT W1
1 26487U 00052A   02357.21690973 +.00000084 +00000-0 +10000-3 0 03325
2 26487 000.0212 297.2934 0004351 331.7395 270.6232 01.00274544008449
ASTRA 2B
1 26494U 00054A   02354.00000000  .00000173  00000-0  00000+0 0  2496
2 26494   0.0178 354.5658 0005000 302.8402 179.1852  1.00276704  8315
NOAA 16
1 26536U 00055A   02360.86508296  .00000219  00000-0  14430-3 0  1390
2 26536  98.8970 304.5661 0011439  97.0048 263.2425 14.11869566116577
SAUDISAT 1A
1 26545U 00057A   02360.04284062  .00002206  00000-0  31083-3 0  3892
2 26545  64.5561 199.4864 0055474 247.0887 112.4346 14.78807844121155
UNISAT
1 26547U 00057C   02360.79906840  .00003456  00000-0  46540-3 0  4085
2 26547  64.5556 199.5938 0062377 249.7278 109.7052 14.79470148121233
TIUNGSAT 1
1 26548U 00057D   02361.49927106  .00002700  00000-0  35860-3 0  3939
2 26548  64.5548 188.4850 0048807 245.3062 114.2952 14.81056334121500
SAUDISAT 1B
1 26549U 00057E   02361.05495083  .00002097  00000-0  30270-3 0  6501
2 26549  64.5511 200.2163 0059849 247.7001 111.7746 14.77757065121235
AMSAT OSCAR 40
1 26609U 00072B   02359.53285256 -.00000044  00000-0  10000-3 0  2971
2 26609   7.8593  74.3667 7931605 126.0881 333.9833  1.25597577  9893
GOES 12
1 26871U 01031A   02361.38811116 -.00000079  00000-0  10000-3 0  7438
2 26871   0.4189  98.5123 0001766  76.3069 315.7365  1.00262241  5303
STARSHINE 3
1 26929U 01043A   02361.56624466  .00350478  53770-4  91876-3 0  6115
2 26929  67.0277 141.4130 0003397 301.5839  58.5012 15.94644126 70385
PCSAT
1 26931U 01043C   02360.56677002  .00000541  00000-0  24584-3 0  3612
2 26931  67.0482  34.6336 0005460 255.4181 104.6314 14.29081556 64635
SAPPHIRE
1 26932U 01043D   02360.55173368  .00000370  00000-0  17773-3 0  3564
2 26932  67.0578  34.3909 0006840 241.2780 118.7634 14.29270352 64653
ENVISAT
1 27386U 02009A   02361.52112580  .00000444  00000-0  18083-3 0  7884
2 27386  98.5524  65.8314 0000938 113.7116 246.4168 14.32246093 43156
IDEFIX/ARIANE 42P
1 27422U 02021B   02361.20901212  .00000643  00000-0  27718-3 0  1949
2 27422  98.7033  75.6371 0011993 308.6410  51.3696 14.27938636 33840
NOAA 17
1 27453U 02032A   02360.92665031  .00000622  00000-0  29439-3 0  2466
2 27453  98.7663  67.3981 0011955 148.5773 211.6121 14.23258413 26333
HOT BIRD 6
1 27499U 02038A   02351.86791068  .00000112  00000-0  10000-3 0   630
2 27499   0.0109 318.8794 0005346 321.1542 131.7250  1.00272691  1209
RUBIN-2
1 27605U 02058A   02361.56535694  .00001602  00000-0  27774-3 0   147
2 27605  64.5606 358.1816 0031566 132.7504 227.6261 14.71342632  1015
